Time,TemperatureF,DewpointF,PressureIn,WindDirection,WindDirectionDegrees,WindSpeedMPH,WindSpeedGustMPH,Humidity,HourlyPrecipIn,Conditions,Clouds,dailyrainin,SoftwareType,DateUTC
2013-06-27 00:01:00,68.4,65.0,29.84,WNW,283,0.0,0.0,89,0.00,,,0.00,vanprod-2.3,2013-06-27 05:01:00,
2013-06-27 00:06:00,68.4,65.0,29.84,WNW,283,0.0,0.0,89,0.00,,,0.00,vanprod-2.3,2013-06-27 05:06:00,
2013-06-27 00:11:00,68.4,64.7,29.84,WNW,284,0.0,0.0,88,0.00,,,0.00,vanprod-2.3,2013-06-27 05:11:00,
2013-06-27 00:16:00,68.4,65.0,29.84,WNW,283,0.0,0.0,89,0.00,,,0.00,vanprod-2.3,2013-06-27 05:16:00,
2013-06-27 00:21:00,68.4,65.4,29.84,WNW,283,0.0,0.0,90,0.00,,,0.00,vanprod-2.3,2013-06-27 05:21:00,
2013-06-27 00:26:00,68.4,65.7,29.84,WNW,283,0.0,0.0,91,0.00,,,0.00,vanprod-2.3,2013-06-27 05:26:00,
2013-06-27 00:31:00,68.4,65.7,29.84,WNW,283,0.0,0.0,91,0.00,,,0.00,vanprod-2.3,2013-06-27 05:31:00,
2013-06-27 00:36:00,68.3,65.6,29.84,WNW,284,0.0,0.0,91,0.00,,,0.00,vanprod-2.3,2013-06-27 05:36:00,
2013-06-27 00:41:00,68.4,65.4,29.84,WNW,282,0.0,0.0,90,0.00,,,0.00,vanprod-2.3,2013-06-27 05:41:00,
2013-06-27 00:46:00,68.4,65.0,29.84,WNW,283,0.0,0.0,89,0.00,,,0.00,vanprod-2.3,2013-06-27 05:46:00,
2013-06-27 00:51:00,68.4,65.0,29.84,WNW,282,0.0,0.0,89,0.00,,,0.00,vanprod-2.3,2013-06-27 05:51:00,
2013-06-27 00:56:00,68.4,65.4,29.84,WNW,283,0.0,0.0,90,0.00,,,0.00,vanprod-2.3,2013-06-27 05:56:00,
2013-06-27 01:01:00,68.4,65.4,29.85,WNW,282,0.0,0.0,90,0.00,,,0.00,vanprod-2.3,2013-06-27 06:01:00,
2013-06-27 01:06:00,68.3,65.6,29.85,WNW,283,0.0,0.0,91,0.00,,,0.00,vanprod-2.3,2013-06-27 06:06:00,
2013-06-27 01:11:00,68.3,65.6,29.85,WNW,282,0.0,0.0,91,0.00,,,0.00,vanprod-2.3,2013-06-27 06:11:00,
2013-06-27 01:16:00,68.1,65.4,29.85,WNW,283,0.0,0.0,91,0.00,,,0.00,vanprod-2.3,2013-06-27 06:16:00,
2013-06-27 01:21:00,68.1,65.4,29.85,WNW,282,0.0,0.0,91,0.00,,,0.00,vanprod-2.3,2013-06-27 06:21:00,
2013-06-27 01:26:00,68.1,65.4,29.85,WNW,282,0.0,0.0,91,0.00,,,0.00,vanprod-2.3,2013-06-27 06:26:00,
2013-06-27 01:31:00,67.9,65.2,29.85,WNW,283,0.0,0.0,91,0.00,,,0.00,vanprod-2.3,2013-06-27 06:31:00,
2013-06-27 01:36:00,68.1,65.4,29.85,WNW,282,0.0,0.0,91,0.00,,,0.00,vanprod-2.3,2013-06-27 06:36:00,
2013-06-27 01:41:00,67.9,65.2,29.85,WNW,282,0.0,0.0,91,0.00,,,0.00,vanprod-2.3,2013-06-27 06:41:00,
2013-06-27 01:46:00,67.9,65.2,29.85,WNW,282,0.0,0.0,91,0.00,,,0.00,vanprod-2.3,2013-06-27 06:46:00,
2013-06-27 01:51:00,67.9,65.2,29.85,WNW,282,0.0,0.0,91,0.00,,,0.00,vanprod-2.3,2013-06-27 06:51:00,
2013-06-27 01:56:00,67.8,65.4,29.86,WNW,282,0.0,1.0,92,0.00,,,0.00,vanprod-2.3,2013-06-27 06:56:00,
2013-06-27 02:01:00,67.6,65.2,29.85,WNW,282,0.0,0.0,92,0.00,,,0.00,vanprod-2.3,2013-06-27 07:01:00,
2013-06-27 02:06:00,67.6,65.2,29.86,WNW,282,0.0,0.0,92,0.00,,,0.00,vanprod-2.3,2013-06-27 07:06:00,
2013-06-27 02:11:00,67.6,65.2,29.86,WNW,283,0.0,0.0,92,0.00,,,0.00,vanprod-2.3,2013-06-27 07:11:00,
2013-06-27 02:16:00,67.4,65.0,29.86,WNW,282,0.0,0.0,92,0.00,,,0.00,vanprod-2.3,2013-06-27 07:16:00,
2013-06-27 02:21:00,67.4,65.0,29.86,WNW,282,0.0,0.0,92,0.00,,,0.00,vanprod-2.3,2013-06-27 07:21:00,
2013-06-27 02:26:00,67.4,65.3,29.86,WNW,282,0.0,0.0,93,0.00,,,0.00,vanprod-2.3,2013-06-27 07:26:00,
2013-06-27 02:31:00,67.3,65.2,29.86,WNW,283,0.0,0.0,93,0.00,,,0.00,vanprod-2.3,2013-06-27 07:31:00,
2013-06-27 02:36:00,67.3,65.2,29.86,WNW,282,0.0,0.0,93,0.00,,,0.00,vanprod-2.3,2013-06-27 07:36:00,
2013-06-27 02:41:00,67.3,65.2,29.86,WNW,282,0.0,0.0,93,0.00,,,0.00,vanprod-2.3,2013-06-27 07:41:00,
2013-06-27 02:46:00,67.3,65.2,29.86,WNW,282,0.0,0.0,93,0.00,,,0.00,vanprod-2.3,2013-06-27 07:46:00,
2013-06-27 02:51:00,67.3,65.2,29.86,WNW,282,0.0,0.0,93,0.00,,,0.00,vanprod-2.3,2013-06-27 07:51:00,
2013-06-27 02:56:00,67.3,65.2,29.87,WNW,283,0.0,0.0,93,0.00,,,0.00,vanprod-2.3,2013-06-27 07:56:00,
2013-06-27 03:01:00,67.3,64.9,29.87,WNW,282,0.0,0.0,92,0.00,,,0.00,vanprod-2.3,2013-06-27 08:01:00,
2013-06-27 03:06:00,67.3,64.9,29.87,WNW,282,0.0,0.0,92,0.00,,,0.00,vanprod-2.3,2013-06-27 08:06:00,
2013-06-27 03:11:00,67.3,64.9,29.87,WNW,282,0.0,0.0,92,0.00,,,0.00,vanprod-2.3,2013-06-27 08:11:00,
2013-06-27 03:16:00,67.3,64.9,29.86,WNW,282,0.0,0.0,92,0.00,,,0.00,vanprod-2.3,2013-06-27 08:16:00,
2013-06-27 03:21:00,67.3,64.9,29.87,WNW,282,0.0,0.0,92,0.00,,,0.00,vanprod-2.3,2013-06-27 08:21:00,
2013-06-27 03:26:00,67.1,64.4,29.87,WNW,282,0.0,0.0,91,0.00,,,0.00,vanprod-2.3,2013-06-27 08:26:00,
2013-06-27 03:31:00,67.1,64.4,29.87,WNW,282,0.0,0.0,91,0.00,,,0.00,vanprod-2.3,2013-06-27 08:31:00,
2013-06-27 03:36:00,67.1,64.7,29.87,WNW,282,0.0,0.0,92,0.00,,,0.00,vanprod-2.3,2013-06-27 08:36:00,
2013-06-27 03:41:00,66.9,64.5,29.87,WNW,282,0.0,0.0,92,0.00,,,0.00,vanprod-2.3,2013-06-27 08:41:00,
2013-06-27 03:46:00,66.8,64.4,29.87,WNW,282,0.0,0.0,92,0.00,,,0.00,vanprod-2.3,2013-06-27 08:46:00,
2013-06-27 03:51:00,66.8,64.1,29.87,WNW,283,0.0,0.0,91,0.00,,,0.00,vanprod-2.3,2013-06-27 08:51:00,
2013-06-27 03:56:00,66.8,64.1,29.87,WNW,282,0.0,0.0,91,0.00,,,0.00,vanprod-2.3,2013-06-27 08:56:00,
2013-06-27 04:01:00,66.6,63.9,29.87,WNW,282,0.0,0.0,91,0.00,,,0.00,vanprod-2.3,2013-06-27 09:01:00,
2013-06-27 04:06:00,66.6,63.9,29.88,WNW,283,0.0,0.0,91,0.00,,,0.00,vanprod-2.3,2013-06-27 09:06:00,
2013-06-27 04:11:00,66.6,63.9,29.88,WNW,282,0.0,0.0,91,0.00,,,0.00,vanprod-2.3,2013-06-27 09:11:00,
2013-06-27 04:16:00,66.6,63.9,29.87,WNW,282,0.0,0.0,91,0.00,,,0.00,vanprod-2.3,2013-06-27 09:16:00,
2013-06-27 04:21:00,66.6,63.9,29.88,WNW,282,0.0,0.0,91,0.00,,,0.00,vanprod-2.3,2013-06-27 09:21:00,
2013-06-27 04:26:00,66.6,63.6,29.88,WNW,282,0.0,0.0,90,0.00,,,0.00,vanprod-2.3,2013-06-27 09:26:00,
2013-06-27 04:31:00,66.6,63.6,29.88,WNW,282,0.0,0.0,90,0.00,,,0.00,vanprod-2.3,2013-06-27 09:31:00,
2013-06-27 04:36:00,66.6,63.6,29.88,WNW,282,0.0,0.0,90,0.00,,,0.00,vanprod-2.3,2013-06-27 09:36:00,
2013-06-27 04:41:00,66.6,63.6,29.88,WNW,282,0.0,1.0,90,0.00,,,0.00,vanprod-2.3,2013-06-27 09:41:00,
2013-06-27 04:46:00,66.6,63.6,29.88,WNW,283,0.0,1.0,90,0.00,,,0.00,vanprod-2.3,2013-06-27 09:46:00,
2013-06-27 04:51:00,66.6,63.3,29.88,WNW,282,0.0,2.0,89,0.00,,,0.00,vanprod-2.3,2013-06-27 09:51:00,
2013-06-27 04:56:00,66.8,63.1,29.88,WNW,283,0.0,1.0,88,0.00,,,0.00,vanprod-2.3,2013-06-27 09:56:00,
2013-06-27 05:01:00,66.9,63.2,29.88,WNW,282,0.0,1.0,88,0.00,,,0.00,vanprod-2.3,2013-06-27 10:01:00,
2013-06-27 05:06:00,66.9,63.2,29.88,WNW,282,0.0,0.0,88,0.00,,,0.00,vanprod-2.3,2013-06-27 10:06:00,
2013-06-27 05:11:00,67.1,63.1,29.87,WNW,283,0.0,0.0,87,0.00,,,0.00,vanprod-2.3,2013-06-27 10:11:00,
2013-06-27 05:16:00,66.9,62.9,29.87,WNW,283,0.0,0.0,87,0.00,,,0.00,vanprod-2.3,2013-06-27 10:16:00,
2013-06-27 05:21:00,66.9,63.2,29.87,WNW,282,0.0,0.0,88,0.00,,,0.00,vanprod-2.3,2013-06-27 10:21:00,
2013-06-27 05:26:00,66.8,63.1,29.88,WNW,282,0.0,0.0,88,0.00,,,0.00,vanprod-2.3,2013-06-27 10:26:00,
2013-06-27 05:31:00,66.8,63.1,29.88,WNW,282,0.0,0.0,88,0.00,,,0.00,vanprod-2.3,2013-06-27 10:31:00,
2013-06-27 05:36:00,66.6,63.3,29.88,WNW,284,0.0,0.0,89,0.00,,,0.00,vanprod-2.3,2013-06-27 10:36:00,
2013-06-27 05:41:00,66.6,63.3,29.88,WNW,282,0.0,0.0,89,0.00,,,0.00,vanprod-2.3,2013-06-27 10:41:00,
2013-06-27 05:46:00,66.4,63.4,29.88,WNW,283,0.0,0.0,90,0.00,,,0.00,vanprod-2.3,2013-06-27 10:46:00,
2013-06-27 05:51:00,66.4,63.4,29.88,WNW,284,0.0,0.0,90,0.00,,,0.00,vanprod-2.3,2013-06-27 10:51:00,
2013-06-27 05:56:00,66.3,63.3,29.89,WNW,283,0.0,0.0,90,0.00,,,0.00,vanprod-2.3,2013-06-27 10:56:00,
2013-06-27 06:01:00,66.3,63.3,29.88,WNW,283,0.0,0.0,90,0.00,,,0.00,vanprod-2.3,2013-06-27 11:01:00,
2013-06-27 06:06:00,66.3,63.3,29.88,WNW,283,0.0,0.0,90,0.00,,,0.00,vanprod-2.3,2013-06-27 11:06:00,
2013-06-27 06:11:00,66.3,63.3,29.88,WNW,282,0.0,0.0,90,0.00,,,0.00,vanprod-2.3,2013-06-27 11:11:00,
2013-06-27 06:16:00,66.4,63.4,29.88,WNW,282,0.0,0.0,90,0.00,,,0.00,vanprod-2.3,2013-06-27 11:16:00,
2013-06-27 06:21:00,66.4,63.4,29.88,WNW,282,0.0,0.0,90,0.00,,,0.00,vanprod-2.3,2013-06-27 11:21:00,
2013-06-27 06:26:00,66.6,63.3,29.89,WNW,283,0.0,0.0,89,0.00,,,0.00,vanprod-2.3,2013-06-27 11:26:00,
2013-06-27 06:31:00,66.6,63.3,29.89,WNW,282,0.0,1.0,89,0.00,,,0.00,vanprod-2.3,2013-06-27 11:31:00,
2013-06-27 06:36:00,66.8,62.8,29.89,WNW,283,0.0,6.0,87,0.01,,,0.01,vanprod-2.3,2013-06-27 11:36:00,
2013-06-27 06:41:00,67.1,63.1,29.89,WNW,283,0.0,0.0,87,0.01,,,0.01,vanprod-2.3,2013-06-27 11:41:00,
2013-06-27 06:46:00,67.3,63.3,29.89,WNW,283,0.0,0.0,87,0.01,,,0.01,vanprod-2.3,2013-06-27 11:46:00,
2013-06-27 06:51:00,67.4,63.1,29.89,WNW,283,0.0,0.0,86,0.01,,,0.01,vanprod-2.3,2013-06-27 11:51:00,
2013-06-27 06:56:00,67.8,63.1,29.89,WNW,283,0.0,1.0,85,0.01,,,0.01,vanprod-2.3,2013-06-27 11:56:00,
2013-06-27 07:01:00,67.9,62.9,29.89,WNW,283,0.0,0.0,84,0.01,,,0.01,vanprod-2.3,2013-06-27 12:01:00,
2013-06-27 07:06:00,68.3,62.9,29.89,WNW,283,1.0,0.0,83,0.01,,,0.01,vanprod-2.3,2013-06-27 12:06:00,
2013-06-27 07:11:00,68.6,63.2,29.90,WNW,283,0.0,0.0,83,0.01,,,0.01,vanprod-2.3,2013-06-27 12:11:00,
2013-06-27 07:16:00,68.9,62.8,29.90,WNW,283,0.0,0.0,81,0.01,,,0.01,vanprod-2.3,2013-06-27 12:16:00,
2013-06-27 07:21:00,69.3,62.5,29.90,WNW,284,0.0,0.0,79,0.01,,,0.01,vanprod-2.3,2013-06-27 12:21:00,
2013-06-27 07:26:00,69.6,62.8,29.90,WNW,284,0.0,0.0,79,0.01,,,0.01,vanprod-2.3,2013-06-27 12:26:00,
2013-06-27 07:31:00,69.8,62.6,29.90,WNW,283,2.0,3.0,78,0.01,,,0.01,vanprod-2.3,2013-06-27 12:31:00,
2013-06-27 07:36:00,70.1,62.6,29.90,WNW,283,2.0,2.0,77,0.01,,,0.01,vanprod-2.3,2013-06-27 12:36:00,
2013-06-27 07:41:00,70.4,62.9,29.90,WNW,283,0.0,1.0,77,0.00,,,0.01,vanprod-2.3,2013-06-27 12:41:00,
2013-06-27 07:46:00,70.6,62.3,29.90,WNW,284,0.0,0.0,75,0.00,,,0.01,vanprod-2.3,2013-06-27 12:46:00,
2013-06-27 07:51:00,70.6,62.3,29.90,WNW,284,0.0,0.0,75,0.00,,,0.01,vanprod-2.3,2013-06-27 12:51:00,
2013-06-27 07:56:00,71.0,61.9,29.90,WNW,284,1.0,0.0,73,0.00,,,0.01,vanprod-2.3,2013-06-27 12:56:00,
2013-06-27 08:01:00,71.1,62.0,29.90,WNW,284,0.0,0.0,73,0.00,,,0.01,vanprod-2.3,2013-06-27 13:01:00,
2013-06-27 08:06:00,71.5,62.4,29.90,WNW,284,0.0,0.0,73,0.00,,,0.01,vanprod-2.3,2013-06-27 13:06:00,
2013-06-27 08:11:00,71.6,60.9,29.90,WNW,284,2.0,3.0,69,0.00,,,0.01,vanprod-2.3,2013-06-27 13:11:00,
2013-06-27 08:16:00,72.0,61.3,29.90,WNW,301,1.0,0.0,69,0.00,,,0.01,vanprod-2.3,2013-06-27 13:16:00,
2013-06-27 08:21:00,72.3,61.6,29.90,WNW,301,0.0,0.0,69,0.00,,,0.01,vanprod-2.3,2013-06-27 13:21:00,
2013-06-27 08:26:00,72.7,62.0,29.90,NW,306,0.0,0.0,69,0.00,,,0.01,vanprod-2.3,2013-06-27 13:26:00,
2013-06-27 08:31:00,72.8,61.2,29.90,North,351,1.0,4.0,67,0.00,,,0.01,vanprod-2.3,2013-06-27 13:31:00,
2013-06-27 08:36:00,73.2,62.0,29.89,North,352,2.0,3.0,68,0.00,,,0.01,vanprod-2.3,2013-06-27 13:36:00,
2013-06-27 08:41:00,73.4,62.2,29.89,North,352,2.0,2.0,68,0.00,,,0.01,vanprod-2.3,2013-06-27 13:41:00,
2013-06-27 08:46:00,73.5,61.5,29.89,North,352,3.0,3.0,66,0.00,,,0.01,vanprod-2.3,2013-06-27 13:46:00,
2013-06-27 08:51:00,73.4,62.2,29.90,North,352,2.0,5.0,68,0.00,,,0.01,vanprod-2.3,2013-06-27 13:51:00,
2013-06-27 08:56:00,73.4,61.4,29.90,North,352,1.0,1.0,66,0.00,,,0.01,vanprod-2.3,2013-06-27 13:56:00,
2013-06-27 09:01:00,73.4,61.4,29.90,North,352,1.0,1.0,66,0.00,,,0.01,vanprod-2.3,2013-06-27 14:01:00,
2013-06-27 09:06:00,73.5,62.3,29.90,North,352,1.0,2.0,68,0.00,,,0.01,vanprod-2.3,2013-06-27 14:06:00,
2013-06-27 09:11:00,73.7,61.2,29.90,North,353,2.0,3.0,65,0.00,,,0.01,vanprod-2.3,2013-06-27 14:11:00,
2013-06-27 09:16:00,74.1,61.2,29.90,North,353,2.0,2.0,64,0.00,,,0.01,vanprod-2.3,2013-06-27 14:16:00,
2013-06-27 09:21:00,74.4,62.3,29.91,North,354,2.0,0.0,66,0.00,,,0.01,vanprod-2.3,2013-06-27 14:21:00,
2013-06-27 09:26:00,74.8,61.4,29.91,North,354,3.0,3.0,63,0.00,,,0.01,vanprod-2.3,2013-06-27 14:26:00,
2013-06-27 09:31:00,75.1,61.7,29.91,North,354,0.0,1.0,63,0.00,,,0.01,vanprod-2.3,2013-06-27 14:31:00,
2013-06-27 09:36:00,75.6,61.2,29.91,NNW,347,1.0,2.0,61,0.00,,,0.01,vanprod-2.3,2013-06-27 14:36:00,
2013-06-27 09:41:00,76.0,61.1,29.91,West,279,3.0,7.0,60,0.00,,,0.01,vanprod-2.3,2013-06-27 14:41:00,
2013-06-27 09:46:00,76.3,60.9,29.91,WNW,284,1.0,1.0,59,0.00,,,0.01,vanprod-2.3,2013-06-27 14:46:00,
2013-06-27 09:51:00,76.7,62.3,29.91,WNW,285,1.0,2.0,61,0.00,,,0.01,vanprod-2.3,2013-06-27 14:51:00,
2013-06-27 09:56:00,77.1,63.5,29.91,WNW,285,1.0,6.0,63,0.00,,,0.01,vanprod-2.3,2013-06-27 14:56:00,
2013-06-27 10:01:00,77.4,62.4,29.91,WNW,285,1.0,0.0,60,0.00,,,0.01,vanprod-2.3,2013-06-27 15:01:00,
2013-06-27 10:06:00,77.8,63.3,29.91,WNW,285,1.0,1.0,61,0.00,,,0.01,vanprod-2.3,2013-06-27 15:06:00,
2013-06-27 10:11:00,78.0,63.5,29.91,WNW,285,1.0,3.0,61,0.00,,,0.01,vanprod-2.3,2013-06-27 15:11:00,
2013-06-27 10:16:00,78.1,63.1,29.91,WNW,285,3.0,3.0,60,0.00,,,0.01,vanprod-2.3,2013-06-27 15:16:00,
2013-06-27 10:21:00,78.5,63.0,29.91,WNW,285,0.0,1.0,59,0.00,,,0.01,vanprod-2.3,2013-06-27 15:21:00,
2013-06-27 10:26:00,78.7,63.2,29.91,WNW,287,1.0,1.0,59,0.00,,,0.01,vanprod-2.3,2013-06-27 15:26:00,
2013-06-27 10:31:00,78.7,61.2,29.91,WNW,287,3.0,3.0,55,0.00,,,0.01,vanprod-2.3,2013-06-27 15:31:00,
2013-06-27 10:36:00,78.7,61.2,29.91,NW,305,1.0,0.0,55,0.00,,,0.01,vanprod-2.3,2013-06-27 15:36:00,
2013-06-27 10:41:00,78.9,60.9,29.91,NW,306,2.0,0.0,54,0.00,,,0.01,vanprod-2.3,2013-06-27 15:41:00,
2013-06-27 10:46:00,79.3,62.3,29.91,NW,305,2.0,5.0,56,0.00,,,0.01,vanprod-2.3,2013-06-27 15:46:00,
2013-06-27 10:51:00,79.6,62.0,29.91,NW,304,2.0,2.0,55,0.00,,,0.01,vanprod-2.3,2013-06-27 15:51:00,
2013-06-27 10:56:00,79.8,61.2,29.91,WNW,284,4.0,5.0,53,0.00,,,0.01,vanprod-2.3,2013-06-27 15:56:00,
2013-06-27 11:01:00,79.8,62.7,29.91,WSW,254,1.0,6.0,56,0.00,,,0.01,vanprod-2.3,2013-06-27 16:01:00,
2013-06-27 11:06:00,80.2,62.1,29.92,West,264,2.0,8.0,54,0.00,,,0.01,vanprod-2.3,2013-06-27 16:06:00,
2013-06-27 11:11:00,80.2,62.1,29.92,WNW,286,4.0,8.0,54,0.00,,,0.01,vanprod-2.3,2013-06-27 16:11:00,
2013-06-27 11:16:00,80.6,61.9,29.91,WNW,291,2.0,3.0,53,0.00,,,0.01,vanprod-2.3,2013-06-27 16:16:00,
2013-06-27 11:21:00,80.6,61.4,29.92,WNW,298,3.0,4.0,52,0.00,,,0.01,vanprod-2.3,2013-06-27 16:21:00,
2013-06-27 11:26:00,80.7,61.5,29.92,North,352,2.0,5.0,52,0.00,,,0.01,vanprod-2.3,2013-06-27 16:26:00,
2013-06-27 11:31:00,80.9,62.7,29.92,WNW,288,2.0,2.0,54,0.00,,,0.01,vanprod-2.3,2013-06-27 16:31:00,
2013-06-27 11:36:00,81.3,60.9,29.92,WSW,249,5.0,7.0,50,0.00,,,0.01,vanprod-2.3,2013-06-27 16:36:00,
2013-06-27 11:41:00,81.5,61.6,29.92,NNW,329,4.0,4.0,51,0.00,,,0.01,vanprod-2.3,2013-06-27 16:41:00,
2013-06-27 11:46:00,81.5,61.6,29.92,NW,305,2.0,8.0,51,0.00,,,0.01,vanprod-2.3,2013-06-27 16:46:00,
2013-06-27 11:51:00,81.7,60.7,29.92,West,268,7.0,11.0,49,0.00,,,0.01,vanprod-2.3,2013-06-27 16:51:00,
2013-06-27 11:56:00,81.7,61.8,29.92,NNW,327,2.0,2.0,51,0.00,,,0.01,vanprod-2.3,2013-06-27 16:56:00,
2013-06-27 12:01:00,82.1,62.2,29.93,NNW,347,2.0,4.0,51,0.00,,,0.01,vanprod-2.3,2013-06-27 17:01:00,
2013-06-27 12:06:00,82.3,61.2,29.92,SW,217,2.0,5.0,49,0.00,,,0.01,vanprod-2.3,2013-06-27 17:06:00,
2013-06-27 12:11:00,82.5,62.0,29.92,NW,306,2.0,3.0,50,0.00,,,0.01,vanprod-2.3,2013-06-27 17:11:00,
2013-06-27 12:16:00,82.5,60.3,29.92,NW,309,2.0,3.0,47,0.00,,,0.01,vanprod-2.3,2013-06-27 17:16:00,
2013-06-27 12:21:00,82.5,61.4,29.92,West,276,3.0,5.0,49,0.00,,,0.01,vanprod-2.3,2013-06-27 17:21:00,
2013-06-27 12:26:00,82.7,61.0,29.92,NNW,337,2.0,4.0,48,0.00,,,0.01,vanprod-2.3,2013-06-27 17:26:00,
2013-06-27 12:31:00,82.7,59.8,29.92,NW,319,3.0,7.0,46,0.00,,,0.01,vanprod-2.3,2013-06-27 17:31:00,
2013-06-27 12:36:00,82.7,60.4,29.92,West,264,4.0,4.0,47,0.00,,,0.01,vanprod-2.3,2013-06-27 17:36:00,
2013-06-27 12:41:00,82.9,61.8,29.92,North,353,2.0,4.0,49,0.00,,,0.01,vanprod-2.3,2013-06-27 17:41:00,
2013-06-27 12:46:00,83.1,61.4,29.92,West,260,4.0,4.0,48,0.00,,,0.01,vanprod-2.3,2013-06-27 17:46:00,
2013-06-27 12:51:00,83.3,60.4,29.92,NNW,328,1.0,5.0,46,0.00,,,0.01,vanprod-2.3,2013-06-27 17:51:00,
2013-06-27 12:56:00,83.3,57.8,29.92,West,274,4.0,5.0,42,0.00,,,0.01,vanprod-2.3,2013-06-27 17:56:00,
2013-06-27 13:01:00,83.3,57.8,29.92,West,267,4.0,7.0,42,0.00,,,0.01,vanprod-2.3,2013-06-27 18:01:00,
2013-06-27 13:06:00,83.6,61.3,29.92,WSW,244,1.0,1.0,47,0.00,,,0.01,vanprod-2.3,2013-06-27 18:06:00,
2013-06-27 13:11:00,83.8,57.6,29.92,NW,307,3.0,6.0,41,0.00,,,0.01,vanprod-2.3,2013-06-27 18:11:00,
2013-06-27 13:16:00,83.6,58.1,29.92,NNW,339,4.0,9.0,42,0.00,,,0.01,vanprod-2.3,2013-06-27 18:16:00,
2013-06-27 13:21:00,83.5,56.0,29.92,North,352,4.0,4.0,39,0.00,,,0.01,vanprod-2.3,2013-06-27 18:21:00,
2013-06-27 13:26:00,83.5,57.3,29.92,NW,320,4.0,0.0,41,0.00,,,0.01,vanprod-2.3,2013-06-27 18:26:00,
2013-06-27 13:31:00,83.6,58.8,29.92,West,267,2.0,2.0,43,0.00,,,0.01,vanprod-2.3,2013-06-27 18:31:00,
2013-06-27 13:36:00,83.8,58.3,29.92,NW,317,3.0,3.0,42,0.00,,,0.01,vanprod-2.3,2013-06-27 18:36:00,
2013-06-27 13:41:00,84.2,58.6,29.92,WNW,291,2.0,2.0,42,0.00,,,0.01,vanprod-2.3,2013-06-27 18:41:00,
2013-06-27 13:46:00,84.4,58.2,29.92,North,359,1.0,6.0,41,0.00,,,0.01,vanprod-2.3,2013-06-27 18:46:00,
2013-06-27 13:51:00,84.2,60.6,29.92,NW,308,4.0,7.0,45,0.00,,,0.01,vanprod-2.3,2013-06-27 18:51:00,
2013-06-27 13:56:00,84.2,58.6,29.92,West,275,3.0,4.0,42,0.00,,,0.01,vanprod-2.3,2013-06-27 18:56:00,
2013-06-27 14:01:00,84.0,57.8,29.92,West,273,5.0,6.0,41,0.00,,,0.01,vanprod-2.3,2013-06-27 19:01:00,
2013-06-27 14:06:00,83.8,58.9,29.92,West,275,4.0,4.0,43,0.00,,,0.01,vanprod-2.3,2013-06-27 19:06:00,
2013-06-27 14:11:00,84.0,58.5,29.92,NW,308,2.0,2.0,42,0.00,,,0.01,vanprod-2.3,2013-06-27 19:11:00,
2013-06-27 14:16:00,84.2,59.3,29.92,NW,311,3.0,7.0,43,0.00,,,0.01,vanprod-2.3,2013-06-27 19:16:00,
2013-06-27 14:21:00,84.2,57.3,29.92,WNW,303,3.0,5.0,40,0.00,,,0.01,vanprod-2.3,2013-06-27 19:21:00,
2013-06-27 14:26:00,84.2,56.6,29.92,North,353,3.0,0.0,39,0.00,,,0.01,vanprod-2.3,2013-06-27 19:26:00,
2013-06-27 14:31:00,84.4,57.5,29.92,West,269,4.0,6.0,40,0.00,,,0.01,vanprod-2.3,2013-06-27 19:31:00,
2013-06-27 14:36:00,84.6,56.9,29.92,North,0,4.0,4.0,39,0.00,,,0.01,vanprod-2.3,2013-06-27 19:36:00,
2013-06-27 14:41:00,85.0,60.0,29.92,NW,322,2.0,3.0,43,0.00,,,0.01,vanprod-2.3,2013-06-27 19:41:00,
2013-06-27 14:46:00,85.2,56.8,29.91,NW,308,3.0,3.0,38,0.00,,,0.01,vanprod-2.3,2013-06-27 19:46:00,
2013-06-27 14:51:00,85.0,59.4,29.91,West,266,4.0,4.0,42,0.00,,,0.01,vanprod-2.3,2013-06-27 19:51:00,
2013-06-27 14:56:00,84.8,59.2,29.91,North,359,2.0,3.0,42,0.00,,,0.01,vanprod-2.3,2013-06-27 19:56:00,
2013-06-27 15:01:00,84.8,57.1,29.91,North,358,2.0,2.0,39,0.00,,,0.01,vanprod-2.3,2013-06-27 20:01:00,
2013-06-27 15:06:00,85.0,56.6,29.91,WNW,290,3.0,5.0,38,0.00,,,0.01,vanprod-2.3,2013-06-27 20:06:00,
2013-06-27 15:11:00,85.2,57.5,29.91,NNW,331,2.0,2.0,39,0.00,,,0.01,vanprod-2.3,2013-06-27 20:11:00,
2013-06-27 15:16:00,85.2,56.8,29.91,NW,304,3.0,8.0,38,0.00,,,0.01,vanprod-2.3,2013-06-27 20:16:00,
2013-06-27 15:21:00,85.0,51.9,29.91,WNW,302,5.0,5.0,32,0.00,,,0.01,vanprod-2.3,2013-06-27 20:21:00,
2013-06-27 15:26:00,85.0,54.3,29.91,West,281,2.0,6.0,35,0.00,,,0.01,vanprod-2.3,2013-06-27 20:26:00,
2013-06-27 15:31:00,85.0,54.3,29.91,North,0,4.0,4.0,35,0.00,,,0.01,vanprod-2.3,2013-06-27 20:31:00,
2013-06-27 15:36:00,85.0,52.7,29.91,NW,307,5.0,11.0,33,0.00,,,0.01,vanprod-2.3,2013-06-27 20:36:00,
2013-06-27 15:41:00,85.0,55.8,29.91,NW,310,2.0,6.0,37,0.00,,,0.01,vanprod-2.3,2013-06-27 20:41:00,
2013-06-27 15:46:00,85.4,53.9,29.91,North,5,2.0,6.0,34,0.00,,,0.01,vanprod-2.3,2013-06-27 20:46:00,
2013-06-27 15:51:00,85.4,54.7,29.91,NW,313,3.0,14.0,35,0.00,,,0.01,vanprod-2.3,2013-06-27 20:51:00,
2013-06-27 15:56:00,85.2,55.3,29.91,WNW,295,4.0,4.0,36,0.00,,,0.01,vanprod-2.3,2013-06-27 20:56:00,
2013-06-27 16:01:00,85.2,55.3,29.91,NNE,18,5.0,6.0,36,0.00,,,0.01,vanprod-2.3,2013-06-27 21:01:00,
2013-06-27 16:06:00,85.0,54.3,29.91,West,267,5.0,11.0,35,0.00,,,0.01,vanprod-2.3,2013-06-27 21:06:00,
2013-06-27 16:12:00,85.2,55.3,29.91,NNW,344,6.0,10.0,36,0.00,,,0.01,vanprod-2.3,2013-06-27 21:12:00,
2013-06-27 16:17:00,85.2,54.5,29.91,WNW,285,4.0,13.0,35,0.00,,,0.01,vanprod-2.3,2013-06-27 21:17:00,
2013-06-27 16:22:00,85.2,56.8,29.90,NNW,344,2.0,6.0,38,0.00,,,0.01,vanprod-2.3,2013-06-27 21:22:00,
2013-06-27 16:27:00,85.4,56.2,29.90,NNW,330,3.0,8.0,37,0.00,,,0.01,vanprod-2.3,2013-06-27 21:27:00,
2013-06-27 16:32:00,85.4,54.7,29.90,North,0,4.0,0.0,35,0.00,,,0.01,vanprod-2.3,2013-06-27 21:32:00,
2013-06-27 16:37:00,85.2,55.3,29.90,NNW,342,3.0,3.0,36,0.00,,,0.01,vanprod-2.3,2013-06-27 21:37:00,
2013-06-27 16:42:00,85.2,53.7,29.90,North,356,5.0,13.0,34,0.00,,,0.01,vanprod-2.3,2013-06-27 21:42:00,
2013-06-27 16:47:00,85.4,56.2,29.90,West,263,2.0,2.0,37,0.00,,,0.01,vanprod-2.3,2013-06-27 21:47:00,
2013-06-27 16:52:00,85.2,54.5,29.90,NW,307,6.0,6.0,35,0.00,,,0.01,vanprod-2.3,2013-06-27 21:52:00,
2013-06-27 16:57:00,85.2,54.5,29.90,NW,304,5.0,7.0,35,0.00,,,0.01,vanprod-2.3,2013-06-27 21:57:00,
2013-06-27 17:02:00,85.2,54.5,29.90,NNW,331,5.0,5.0,35,0.00,,,0.01,vanprod-2.3,2013-06-27 22:02:00,
2013-06-27 17:07:00,85.2,53.7,29.90,West,261,3.0,7.0,34,0.00,,,0.01,vanprod-2.3,2013-06-27 22:07:00,
2013-06-27 17:13:00,85.6,54.0,29.90,NW,313,2.0,10.0,34,0.00,,,0.01,vanprod-2.3,2013-06-27 22:13:00,
2013-06-27 17:18:00,85.4,54.7,29.90,WNW,290,5.0,12.0,35,0.00,,,0.01,vanprod-2.3,2013-06-27 22:18:00,
2013-06-27 17:23:00,85.4,54.7,29.90,NW,320,4.0,10.0,35,0.00,,,0.01,vanprod-2.3,2013-06-27 22:23:00,
2013-06-27 17:28:00,85.4,53.9,29.90,NE,49,4.0,4.0,34,0.00,,,0.01,vanprod-2.3,2013-06-27 22:28:00,
2013-06-27 17:33:00,85.0,54.3,29.90,WNW,302,2.0,0.0,35,0.00,,,0.01,vanprod-2.3,2013-06-27 22:33:00,
2013-06-27 17:38:00,85.4,55.4,29.89,WNW,287,0.0,1.0,36,0.00,,,0.01,vanprod-2.3,2013-06-27 22:38:00,
2013-06-27 17:43:00,85.6,54.0,29.90,NNW,327,6.0,7.0,34,0.00,,,0.01,vanprod-2.3,2013-06-27 22:43:00,
2013-06-27 17:48:00,85.4,53.9,29.89,West,278,3.0,10.0,34,0.00,,,0.01,vanprod-2.3,2013-06-27 22:48:00,
2013-06-27 17:53:00,85.2,52.9,29.89,NW,319,3.0,4.0,33,0.00,,,0.01,vanprod-2.3,2013-06-27 22:53:00,
2013-06-27 17:58:00,85.2,54.5,29.89,North,2,2.0,4.0,35,0.00,,,0.01,vanprod-2.3,2013-06-27 22:58:00,
2013-06-27 18:03:00,85.4,56.2,29.89,NNW,342,4.0,11.0,37,0.00,,,0.01,vanprod-2.3,2013-06-27 23:03:00,
2013-06-27 18:08:00,85.0,54.3,29.89,NNW,342,1.0,7.0,35,0.00,,,0.01,vanprod-2.3,2013-06-27 23:08:00,
2013-06-27 18:14:00,84.6,54.7,29.89,NW,315,5.0,6.0,36,0.00,,,0.01,vanprod-2.3,2013-06-27 23:14:00,
2013-06-27 18:19:00,84.4,55.3,29.89,WNW,292,3.0,0.0,37,0.00,,,0.01,vanprod-2.3,2013-06-27 23:19:00,
2013-06-27 18:24:00,84.2,56.6,29.89,West,267,4.0,6.0,39,0.00,,,0.01,vanprod-2.3,2013-06-27 23:24:00,
2013-06-27 18:29:00,84.0,57.1,29.89,North,355,0.0,2.0,40,0.00,,,0.01,vanprod-2.3,2013-06-27 23:29:00,
2013-06-27 18:34:00,84.0,55.7,29.89,NNW,343,3.0,6.0,38,0.00,,,0.01,vanprod-2.3,2013-06-27 23:34:00,
2013-06-27 18:39:00,83.8,55.5,29.89,West,268,2.0,2.0,38,0.00,,,0.01,vanprod-2.3,2013-06-27 23:39:00,
2013-06-27 18:44:00,83.6,57.4,29.89,North,349,3.0,4.0,41,0.00,,,0.01,vanprod-2.3,2013-06-27 23:44:00,
2013-06-27 18:49:00,83.6,56.1,29.89,West,278,3.0,6.0,39,0.00,,,0.01,vanprod-2.3,2013-06-27 23:49:00,
2013-06-27 18:54:00,83.6,56.1,29.88,NNW,347,4.0,6.0,39,0.00,,,0.01,vanprod-2.3,2013-06-27 23:54:00,
2013-06-27 18:59:00,83.6,56.8,29.89,NNW,327,3.0,8.0,40,0.00,,,0.01,vanprod-2.3,2013-06-27 23:59:00,
2013-06-27 19:04:00,83.5,56.7,29.88,NW,305,1.0,10.0,40,0.00,,,0.01,vanprod-2.3,2013-06-28 00:04:00,
2013-06-27 19:09:00,83.5,56.7,29.88,NNW,342,1.0,2.0,40,0.00,,,0.01,vanprod-2.3,2013-06-28 00:09:00,
2013-06-27 19:14:00,83.5,57.3,29.88,North,350,1.0,1.0,41,0.00,,,0.01,vanprod-2.3,2013-06-28 00:14:00,
2013-06-27 19:19:00,83.5,58.7,29.88,WSW,258,1.0,2.0,43,0.00,,,0.01,vanprod-2.3,2013-06-28 00:19:00,
2013-06-27 19:24:00,83.3,57.2,29.88,WNW,299,2.0,0.0,41,0.00,,,0.01,vanprod-2.3,2013-06-28 00:24:00,
2013-06-27 19:30:00,83.5,56.7,29.88,WNW,298,1.0,2.0,40,0.00,,,0.01,vanprod-2.3,2013-06-28 00:30:00,
2013-06-27 19:35:00,83.5,58.0,29.88,WNW,299,1.0,1.0,42,0.00,,,0.01,vanprod-2.3,2013-06-28 00:35:00,
2013-06-27 19:40:00,83.1,57.7,29.88,NW,322,1.0,3.0,42,0.00,,,0.01,vanprod-2.3,2013-06-28 00:40:00,
2013-06-27 19:45:00,82.9,58.1,29.88,NW,313,1.0,1.0,43,0.00,,,0.01,vanprod-2.3,2013-06-28 00:45:00,
2013-06-27 19:50:00,83.1,59.0,29.88,NW,315,0.0,0.0,44,0.00,,,0.01,vanprod-2.3,2013-06-28 00:50:00,
2013-06-27 19:55:00,83.3,57.8,29.88,NNE,24,0.0,1.0,42,0.00,,,0.01,vanprod-2.3,2013-06-28 00:55:00,
2013-06-27 20:00:00,83.3,59.1,29.88,NW,325,0.0,0.0,44,0.00,,,0.01,vanprod-2.3,2013-06-28 01:00:00,
2013-06-27 20:06:00,83.3,58.5,29.88,NW,325,0.0,2.0,43,0.00,,,0.01,vanprod-2.3,2013-06-28 01:06:00,
2013-06-27 20:11:00,83.1,59.6,29.88,NW,325,0.0,1.0,45,0.00,,,0.01,vanprod-2.3,2013-06-28 01:11:00,
2013-06-27 20:16:00,82.7,59.2,29.88,WNW,296,0.0,2.0,45,0.00,,,0.01,vanprod-2.3,2013-06-28 01:16:00,
2013-06-27 20:21:00,82.1,58.7,29.88,WNW,298,0.0,0.0,45,0.00,,,0.01,vanprod-2.3,2013-06-28 01:21:00,
2013-06-27 20:26:00,81.7,57.7,29.88,NNW,332,1.0,2.0,44,0.00,,,0.01,vanprod-2.3,2013-06-28 01:26:00,
2013-06-27 20:31:00,81.5,57.5,29.88,NNW,346,3.0,5.0,44,0.00,,,0.01,vanprod-2.3,2013-06-28 01:31:00,
2013-06-27 20:36:00,80.9,57.0,29.88,NE,40,2.0,2.0,44,0.00,,,0.01,vanprod-2.3,2013-06-28 01:36:00,
2013-06-27 20:41:00,80.6,56.7,29.88,NW,323,1.0,5.0,44,0.00,,,0.01,vanprod-2.3,2013-06-28 01:41:00,
2013-06-27 20:46:00,80.2,56.3,29.88,North,356,0.0,1.0,44,0.00,,,0.01,vanprod-2.3,2013-06-28 01:46:00,
2013-06-27 20:51:00,80.0,56.8,29.88,North,356,0.0,2.0,45,0.00,,,0.01,vanprod-2.3,2013-06-28 01:51:00,
2013-06-27 20:56:00,79.6,56.4,29.88,North,360,0.0,3.0,45,0.00,,,0.01,vanprod-2.3,2013-06-28 01:56:00,
2013-06-27 21:01:00,79.3,56.1,29.88,West,271,1.0,1.0,45,0.00,,,0.01,vanprod-2.3,2013-06-28 02:01:00,
2013-06-27 21:06:00,79.1,56.0,29.88,West,280,1.0,3.0,45,0.00,,,0.01,vanprod-2.3,2013-06-28 02:06:00,
2013-06-27 21:11:00,78.7,56.2,29.87,WNW,282,0.0,0.0,46,0.00,,,0.01,vanprod-2.3,2013-06-28 02:11:00,
2013-06-27 21:16:00,78.5,56.0,29.87,WNW,284,2.0,2.0,46,0.00,,,0.01,vanprod-2.3,2013-06-28 02:16:00,
2013-06-27 21:21:00,78.1,55.7,29.87,WNW,284,1.0,0.0,46,0.00,,,0.01,vanprod-2.3,2013-06-28 02:21:00,
2013-06-27 21:27:00,78.0,55.6,29.87,WNW,284,0.0,0.0,46,0.00,,,0.01,vanprod-2.3,2013-06-28 02:27:00,
2013-06-27 21:32:00,77.6,55.2,29.87,WNW,284,0.0,1.0,46,0.00,,,0.01,vanprod-2.3,2013-06-28 02:32:00,
2013-06-27 21:37:00,77.4,55.6,29.87,WNW,284,0.0,0.0,47,0.00,,,0.01,vanprod-2.3,2013-06-28 02:37:00,
2013-06-27 21:42:00,77.2,55.4,29.87,WNW,284,0.0,1.0,47,0.00,,,0.01,vanprod-2.3,2013-06-28 02:42:00,
2013-06-27 21:47:00,77.2,55.4,29.87,WNW,284,1.0,2.0,47,0.00,,,0.01,vanprod-2.3,2013-06-28 02:47:00,
2013-06-27 21:52:00,76.7,55.0,29.88,WNW,284,0.0,0.0,47,0.00,,,0.01,vanprod-2.3,2013-06-28 02:52:00,
2013-06-27 21:57:00,76.3,56.9,29.88,WNW,284,0.0,0.0,51,0.00,,,0.01,vanprod-2.3,2013-06-28 02:57:00,
2013-06-27 22:02:00,76.0,57.7,29.88,WNW,284,0.0,0.0,53,0.00,,,0.01,vanprod-2.3,2013-06-28 03:02:00,
2013-06-27 22:07:00,75.8,57.5,29.88,WNW,287,0.0,0.0,53,0.00,,,0.01,vanprod-2.3,2013-06-28 03:07:00,
2013-06-27 22:12:00,75.6,57.3,29.88,WNW,288,0.0,0.0,53,0.00,,,0.01,vanprod-2.3,2013-06-28 03:12:00,
2013-06-27 22:17:00,75.5,57.2,29.88,WNW,288,0.0,0.0,53,0.00,,,0.01,vanprod-2.3,2013-06-28 03:17:00,
2013-06-27 22:22:00,75.3,57.0,29.88,WNW,288,0.0,0.0,53,0.00,,,0.01,vanprod-2.3,2013-06-28 03:22:00,
2013-06-27 22:27:00,75.1,57.3,29.88,WNW,288,0.0,0.0,54,0.00,,,0.01,vanprod-2.3,2013-06-28 03:27:00,
2013-06-27 22:32:00,74.9,57.2,29.88,WNW,288,0.0,1.0,54,0.00,,,0.01,vanprod-2.3,2013-06-28 03:32:00,
2013-06-27 22:37:00,74.8,57.6,29.88,WNW,288,0.0,0.0,55,0.00,,,0.01,vanprod-2.3,2013-06-28 03:37:00,
2013-06-27 22:42:00,74.4,57.2,29.88,WNW,288,0.0,0.0,55,0.00,,,0.01,vanprod-2.3,2013-06-28 03:42:00,
2013-06-27 22:47:00,74.2,57.0,29.88,WNW,288,0.0,2.0,55,0.00,,,0.01,vanprod-2.3,2013-06-28 03:47:00,
2013-06-27 22:52:00,74.1,57.9,29.88,WNW,288,0.0,0.0,57,0.00,,,0.01,vanprod-2.3,2013-06-28 03:52:00,
2013-06-27 22:57:00,73.7,57.5,29.89,WNW,288,0.0,1.0,57,0.00,,,0.01,vanprod-2.3,2013-06-28 03:57:00,
2013-06-27 23:01:00,73.5,57.8,29.89,WNW,288,0.0,1.0,58,0.00,,,0.01,vanprod-2.3,2013-06-28 04:01:00,
2013-06-27 23:06:00,73.4,58.2,29.89,WNW,288,1.0,3.0,59,0.00,,,0.01,vanprod-2.3,2013-06-28 04:06:00,
2013-06-27 23:11:00,73.2,57.6,29.89,WNW,288,0.0,0.0,58,0.00,,,0.01,vanprod-2.3,2013-06-28 04:11:00,
2013-06-27 23:16:00,73.0,56.9,29.90,WNW,288,0.0,0.0,57,0.00,,,0.01,vanprod-2.3,2013-06-28 04:16:00,
2013-06-27 23:21:00,72.8,56.7,29.90,WNW,288,0.0,0.0,57,0.00,,,0.01,vanprod-2.3,2013-06-28 04:21:00,
2013-06-27 23:26:00,72.7,56.6,29.90,WNW,288,1.0,0.0,57,0.00,,,0.01,vanprod-2.3,2013-06-28 04:26:00,
2013-06-27 23:31:00,72.5,56.9,29.90,WNW,288,0.0,2.0,58,0.00,,,0.01,vanprod-2.3,2013-06-28 04:31:00,
2013-06-27 23:36:00,72.3,56.7,29.90,WNW,288,0.0,0.0,58,0.00,,,0.01,vanprod-2.3,2013-06-28 04:36:00,
2013-06-27 23:41:00,72.0,56.9,29.90,WNW,288,0.0,0.0,59,0.00,,,0.01,vanprod-2.3,2013-06-28 04:41:00,
2013-06-27 23:46:00,71.8,57.2,29.90,WNW,288,0.0,0.0,60,0.00,,,0.01,vanprod-2.3,2013-06-28 04:46:00,
2013-06-27 23:51:00,71.6,57.0,29.90,WNW,288,0.0,0.0,60,0.00,,,0.01,vanprod-2.3,2013-06-28 04:51:00,
2013-06-27 23:56:00,71.3,56.7,29.90,WNW,288,0.0,0.0,60,0.00,,,0.01,vanprod-2.3,2013-06-28 04:56:00,